Flag for U.S.A. Weather past 2 weeks in Macon, Georgia, U.S.A.

Now
91 °F

Sunny.


Feels Like: 93 °F
Forecast: 73 / 91 °F
Wind: 13 mph from West

Location: Middle Georgia Regional Airport

Current Time: Jul 3, 2015 at 6:26:44 PM

Latest Report: Jul 3, 2015 at 5:53 PM


Visibility: 10 mi

Pressure: 29.96 "Hg

Humidity: 42%

Dew point: 65 °F

Location of MaconLocation

Historic Weather in Macon — Graph

°F

Macon temperature yesterday

Maximum temperature yesterday: 92 °F (at 3:53 PM)
Minimum temperature yesterday: 69 °F (at 12:53 AM)
Average temperature yesterday: 76 °F

Past Weeks' High & Low Weather Summary

 TemperatureHumidityPressure
High100 °F (Jun 18, 5:53 PM)100% (Jun 28, 1:03 AM)30.11 "Hg (Jun 28, 1:03 AM)
Low63 °F (Jun 29, 5:53 AM)33% (Jun 18, 5:53 PM)29.83 "Hg (Jun 27, 5:53 PM)
Average80 °F74%30.01 "Hg
* Reported Jun 18 4:53 PM — Jul 3 4:53 PM, Macon, Weather by CustomWeather, © 2015

Note: Actual official high and low records may vary slightly from our data, if they occured in-between our weather recording intervals... More about our weather records

Advertising

Macon weather history for previous 24 hours

 ConditionsComfort  
Time TempWeatherWind HumidityBarometerVisibility
4:53 PM
Fri, Jul 3
91 °FSunny.18 mph42%29.98 "Hg10 mi
3:53 PM92 °FSunny.9 mph49%29.98 "Hg10 mi
2:53 PM90 °FSunny.9 mph52%29.99 "Hg10 mi
1:53 PM86 °FScattered clouds.14 mph55%30.02 "Hg10 mi
12:53 PM89 °FScattered clouds.17 mph52%30.01 "Hg10 mi
11:53 AM87 °FSunny.16 mph59%30.01 "Hg10 mi
11:03 AM84 °FScattered clouds.14 mph66%30.03 "Hg10 mi
10:53 AM83 °FPartly sunny.12 mph70%30.01 "Hg10 mi
9:53 AM81 °FPartly sunny.8 mph77%30.01 "Hg10 mi
8:53 AM77 °FOvercast.9 mph85%30.01 "Hg10 mi
7:53 AM76 °FPartly sunny.9 mph88%30.01 "Hg9 mi
7:02 AM75 °FPartly cloudy.9 mph89%30.02 "Hg8 mi
6:53 AM75 °FMostly cloudy.8 mph90%30.00 "Hg9 mi
5:53 AM75 °FPassing clouds.7 mph90%29.97 "Hg10 mi
4:53 AM75 °FPassing clouds.6 mph90%29.97 "Hg10 mi
3:53 AM74 °FMostly cloudy.8 mph94%29.96 "Hg9 mi
2:53 AM74 °FPassing clouds.5 mph91%29.98 "Hg9 mi
1:53 AM74 °FPassing clouds.5 mph91%29.99 "Hg9 mi
12:53 AM74 °FPassing clouds.6 mph91%29.99 "Hg9 mi
11:53 PM
Thu, Jul 2
74 °FPassing clouds.6 mph91%30.00 "Hg9 mi
10:53 PM74 °FLow clouds.3 mph91%29.99 "Hg9 mi
9:53 PM73 °FPassing clouds.5 mph94%29.98 "Hg9 mi
8:53 PM74 °FSunny.6 mph91%29.99 "Hg10 mi
7:53 PM74 °FSunny.5 mph88%29.99 "Hg10 mi
6:53 PM74 °FSunny.6 mph88%29.98 "Hg10 mi
Weather by CustomWeather, © 2015

See weather overviewHow to use our weather pages